STARLINK-2188, 48563

Orbit data source: Space-Track

STARLINK-2188, 48563 is a payload satellite owned by SpaceX/Seattle (US) in LEO that was launched on Sat, 15 May 2021 UTC via an FALCON 9 launch vehicle from the Air Force Eastern Test Range (AFETR). Payload-class satellites include a variety of spacecraft equipped with specific instruments for various scientific and technological missions. These include communications satellites like Starlink; space stations such as the ISS; scientific satellites like the Hubble; Earth observation satellites from companies like Planet Labs, Umbra, and HawkEye 360; GPS; miniature CubeSats for education and research; and military/defense satellites.

Loading next visibility...
Identifier
48563, 2021-041L
Orbit
LEO
Country
Flag of USUS
Related business
Manufacturer
SpaceX/Seattle
Mission
Operational Commercial Communications
Bus & Motor
STARLINK, Unknown motor
Mass
260 kg wet, ~248 kg dry
Launch date (UTC)
2021-05-15 (5 years ago)
Launch vehicle
FALCON 9
Launch site
Air Force Eastern Test Range (AFETR)
Object type
Payload
Rocket body
Debris
Shape & HBR
Box + 1 Pan, 10.1 m
Radar Cross Section
13.562 m², Large (>1 m²)

Expand to show TLE details & history
Last TLE update: 1 day ago

TLE from 1 day ago
0 STARLINK-2188
1 48563U 21041L   25348.77676160  .00001648  00000-0  12950-3 0  9995
2 48563  53.0542 152.8043 0001278  98.0938 262.0196 15.06398141252402
Epoch: 2025-12-14T18:38Z
TLE epoch observation values (Epoch: 2025-12-14T18:38:32.202Z)
Latitude
-0.00001°
Longitude
149.4853°
Altitude
548.219 km
Speed
7.589 km/s
True Right ascension
10h 11m 13s
True Declination
0° 00' 00"
Sunlit
Object was in daylight at epoch
Visualization orbit readout
Latitude
Unknown
Longitude
Unknown
Altitude
Unknown
Speed
Unknown
Apparent Right ascension
Unknown
Apparent Declination
Unknown
Sunlit
N/A
Visualization observer readout
Local Sidereal Time
00:25:03
Azimuth
Unknown
Elevation
Unknown
Doppler factor
Unknown
Orbital elements
Apogee altitude
548.373 km
Perigee altitude
546.603 km
Semi-major axis
6,925.625 km
Eccentricity
0.00013
Inclination
53.0542°
RAAN
152.8043°
Arg. of periapsis
98.0938°
True anomaly
262.0051°
Mean anomaly
262.0196°
Eccentric anomaly
262.01235°
Mean motion
3.76578 °/min
Orbital period
95.6 mins
BSTAR
0.0001295
Loading maneuver chart data...
Computing Atmospheric mass density...
Loading historical data...
Loading historical data...
Loading historical data...
Loading historical data...
Loading historical data...
Loading historical data...
Loading historical data...

Documentation

Showing up to 5 results
|